Погода в Жабине

Россия / Липецкая область     53°15′28″N   39°52′59″E
темп.,
°C
ветер,
м/с
пор.,
м/с
влажн.,
%
обл.,
%
осадки,
мм/ч
давл.,
гПа
погр.,
м
23 апреля, пт
пт2300:00+7ю37785 0.0 1020117
03:00+6ю368294 0.0 102093
06:00+7ю378381 0.0 1020121
09:00+13ю476631 0.1 1019444
12:00+16ююз6743100 0.6 10182457
15:00+16ю5746100 0.6 10171934
18:00+14ююв485748 0.0 1015288
21:00+10юв4117819 0.0 1015217
24 апреля, сб
сб2400:00+9ююв5118290 0.0 1012236
03:00+9ююв5128739 0.1 1010317
06:00+9ю51283100 0.2 1009699
09:00+5з5690100 1.8 1010568
12:00+5зсз5895100 3.2 1010664
15:00+8зсз4673100 4.3 1009994
18:00+8з4668100 0.9 1008836
21:00+5з61279100 1.4 1009491
25 апреля, вс
вс2500:00+3з61195100 0.3 1009573
03:00+3зюз6109796 4.1 1010464
06:00+3з71282100 0.1 1013610
09:00+5з710675 0.1 10141114
12:00+8зюз81150100 0.2 10152279
15:00+9зюз91243100 0.2 10152665
18:00+8юз8115546 0.1 10151099
21:00+4ю4107276 0.1 1015211
26 апреля, пн
пн2600:00+4ююз81488100 0.1 1014806
03:00+3з7108259 0.2 1015910
06:00+1юз379060 0.0 1016313
09:00+5зюз3467100 0.0 1016799
12:00+7зюз3351100 0.1 10141718
15:00+8ююз2349100 0.1 10131545
18:00+7юз2355100 0.1 10121174
21:00+4юз347039 0.2 101268
27 апреля, вт
вт2700:00+2юз357878 0.1 1011103
03:00+2юз368599 0.3 1011111
06:00+2юз4888100 0.6 1011294
09:00+5зюз677668 1.4 10111020
12:00+4з698244 0.7 1012793
15:00+9з7946100 0.9 10112313
18:00+7зюз686068 0.6 1012902
21:00+4зюз358098 1.0 1014104